Location: Chmeli�t?
(49.8978°N, 15.0526°E)
Time: 21:53:40
(UTC+00:00)

Cosmos 2151 - Pass Details

Date: 07 June 2020
Orbit: 581 x 601 km, 82.5° (Epoch: 04 July)

Event Time Altitude Azimuth Distance (km) Brightness Sun altitude
Exits shadow 01:40:31 - 177° (S) 2,366 5.6 -9.0°
Reaches altitude 10° 01:41:35 10° 175° (S) 1,934 5.2 -8.9°
Maximum altitude 01:45:48 61° 96° (E) 687 3.5 -8.4°
Drops below altitude 10° 01:50:04 10° 16° (NNE) 1,957 6.9 -8.0°
Sets 01:52:19 0° 13° (NNE) 2,865 7.8 -7.8°
